Lexington Weather

Lexington, Massachusetts, USA

32°F
11/15/2019 2:04am 
  • Lexington Conditions: Mostly cloudy
  • Temperature: 31.5°F / -0.3°CWarmer 0.6°F than last hour.
  • Dew Point: 29.1°FIncreased 1.2°Fsince last hour.
  • Relative Humidity: 91%Increased 3.0% since last hour.
  • Wind: Wind from SSW SSW 1 mph, 10-min avg: Calm, gust: 3 mph
  • Barometer: 30.19 in Steady
  • Visibility: 10 miles
  • Snow Today: 0.0 in
  •   

Regional Weather Roundup
for Boston / Norton, MA

        
000
ASUS41 KBOX 130900
RWRBOX

REGIONAL WEATHER ROUNDUP
NATIONAL WEATHER SERVICE BOSTON/NORTON MA
400 AM EST WED NOV 13 2019

NOTE:  "FAIR" INDICATES FEW OR NO CLOUDS BELOW 12,000 FEET WITH NO 
SIGNIFICANT WEATHER AND/OR OBSTRUCTIONS TO VISIBILITY.

MAZALL-131000-
EASTERN MASSACHUSETTS
  
CITY           SKY/WX    TMP DP  RH WIND       PRES   REMARKS
BOSTON         FAIR      22   2  42 W18G24    30.07R WCI   7          
BEVERLY        FAIR      19   0  43 W16       30.05R WCI   4          
LAWRENCE       FAIR      17   0  47 W14       30.07R WCI   3          
BEDFORD        FAIR      19   0  43 W14G24    30.06R WCI   6          
BLUE HILL      NOT AVBL                                               
NORWOOD        FAIR      22   4  46 NW9       30.08R WCI  12          
MARSHFIELD     NOT AVBL                                               
PLYMOUTH       FAIR      20   5  52 W13G24    30.05R WCI   7          
TAUNTON        FAIR      22   0  38 W15G22    30.07R WCI   9          
NEW BEDFORD    FAIR      20   1  43 NW7G21    30.06R WCI  11          
$$

MAZALL-131000-
CAPE COD AND THE ISLANDS
  
CITY           SKY/WX    TMP DP  RH WIND       PRES   REMARKS
FALMOUTH       CLEAR     19   5  53 NW14G21   30.04F WCI   6          
HYANNIS        NOT AVBL                                               
CHATHAM        FAIR      24  11  57 NW9G20    30.02R WCI  14          
PROVINCETOWN   FAIR      24  12  60 NW26G36   30.02S WCI   8          
NANTUCKET      FAIR      24   6  46 NW25G35   30.05R WCI   8          
MARTHAS VNYRD  FAIR      22   2  42 NW18G29   30.06R WCI   7          
$$
 
MAZALL-131000-
CENTRAL AND WESTERN MASSACHUSETTS
  
CITY           SKY/WX    TMP DP  RH WIND       PRES   REMARKS
WORCESTER      FAIR      15  -3  44 W16G25    30.01R WCI  -1          
FITCHBURG      FAIR      17   3  54 NW12      30.07R WCI   4          
ORANGE         FAIR      17  -2  43 W12       30.08R WCI   4          
SPRINGFIELD    FAIR      18  -1  43 NW13      30.12R WCI   5          
WESTFIELD      FAIR      18   3  52 NW13      30.14R WCI   5          
NORTH ADAMS    FAIR      13   1  59 W7        30.11R WCI   3          
PITTSFIELD     FAIR      12   2  64 NW14G20   30.06R WCI  -3          
$$
 
RIZALL-131000-
RHODE ISLAND
  
CITY           SKY/WX    TMP DP  RH WIND       PRES   REMARKS
PROVIDENCE     FAIR      21   6  52 NW13G21   30.10R WCI   9          
NEWPORT        FAIR      22   5  48 NW13G31   30.07R WCI  10          
BLOCK ISLAND   FAIR      21   5  50 NW22G35   30.11R WCI   5          
SMITHFIELD     FAIR      18   3  52 NW13G20   30.06R WCI   5          
WESTERLY       FAIR      23   2  40 NW9G21    30.12R WCI  13          
$$
 
CTZALL-131000-
CONNECTICUT
  
CITY           SKY/WX    TMP DP  RH WIND       PRES   REMARKS
BRADLEY INTL   FAIR      20   4  50 NW16      30.15R WCI   6          
HARTFORD       FAIR      21   4  47 NW14G23   30.17R WCI   8          
BRIDGEPORT     FAIR      22   9  57 W6        30.17R WCI  14          
DANBURY        FAIR      19   7  59 W6        30.16R WCI  11          
GROTON         NOT AVBL                                               
NEW HAVEN      FAIR      25  11  55 NW13      30.17R WCI  14          
CHESTER        FAIR      21   3  45 NW9G18    30.12R WCI  11          
MERIDEN        FAIR      21   5  50 NW10      30.16R WCI  10          
WILLIMANTIC    FAIR      20   3  48 NW16G22   30.14R WCI   6          
OXFORD         FAIR      17   9  70 W5        30.13R WCI  10          
$$

MEZ002-015-021-024-NHZ003-005-008-011-012-014-VTZ005-008-131000-
NORTHERN NEW ENGLAND
  
CITY           SKY/WX    TMP DP  RH WIND       PRES   REMARKS
PORTLAND ME    FAIR      15   5  64 W14       29.97R WCI   0          
BANGOR ME      FAIR      14   6  70 W6G17     29.83R WCI   5          
CONCORD NH     FAIR      14   2  58 W12G23    30.04R WCI   0          
MANCHESTER NH  FAIR      17  -1  45 NW15G23   30.04R WCI   2          
NASHUA NH      FAIR      17   0  47 NW17G23   30.07R WCI   1          
PORTSMOUTH NH  CLEAR     16  -1  45 W15G24    30.02R WCI   2          
JAFFREY NH     FAIR      13  -3  49 W8        30.02R WCI   2          
KEENE NH       FAIR      14   1  56 VRB6      30.08R WCI   5          
BURLINGTON VT  CLOUDY    12   0  58 W12       30.13R WCI  -2          
MT. WASHINGTON NOT AVBL                                               
$$

NYZ052-076-131000-
EASTERN NEW YORK
  
CITY           SKY/WX    TMP DP  RH WIND       PRES   REMARKS
ALBANY         FAIR      16   3  56 NW10G21   30.19R WCI   4          
NEW YORK CITY  FAIR      26  11  52 NW17G26   30.22R WCI  13          
$$
 
ANZALL-131000-
MARINE OBSERVATIONS
  
STATION/POSITION TIME  TEMP    WIND        PRES    VSBY  WAVE
                       AIR SEA DIR/SP/G                  HT/PER
                 (UTC) (F)     (DEG/KT/KT) (MB)    (MI)  (FT/S)
BOSTON BUOY      0750   25 53  300/ 29/ 35 1015.3          5/ 5
BUZZARDS BAY     0800          310/ 20/ 23 1018.7R
NANTUCKET SOUND  0830      52                N/A
MASS BAY-STELLWA NOT AVBL
ISLE OF SHOALS   0800   19     290/ 36/ 42 1014.2F
S OF BLOCK IS    0830      58                N/A           8/ 6
$$

......................KEY.........................
  SKY/WX - SKY CONDITION/PRESENT WEATHER
  TMP    - TEMPERATURE IN FAHRENHEIT
  DWPT   - DEWPOINT IN FAHRENHEIT
  RH     - RELATIVE HUMIDITY IN PERCENT
  WIND   - DIRECTION AND SPEED IN MPH
  PRES   - MEAN SEA LEVEL PRESSURE IN INCHES OF HG
  WCI    - WIND CHILL INDEX
  VSB    - VISIBILITY IN MILES
  HX     - HEAT INDEX
  TC     - TEMPERATURE IN CELSIUS
  VRB    - VARIABLE WIND DIRECTION
  N/A    - NOT AVAILABLE
  
      

Other recent Regional Weather Roundups

Fri Nov 15, 2:00am

Fri Nov 15, 1:10am

Fri Nov 15, 1:00am

Fri Nov 15, 12:10am

Fri Nov 15, 12:00am

Thu Nov 14, 11:10pm

Thu Nov 14, 11:00pm

Thu Nov 14, 10:10pm

Thu Nov 14, 10:00pm

Thu Nov 14, 9:10pm

Thu Nov 14, 9:00pm

Thu Nov 14, 8:10pm

Thu Nov 14, 8:00pm

Thu Nov 14, 7:10pm

Thu Nov 14, 7:00pm

Thu Nov 14, 6:10pm

Thu Nov 14, 6:01pm

Thu Nov 14, 5:10pm

Thu Nov 14, 5:00pm

Thu Nov 14, 4:10pm

Thu Nov 14, 4:00pm

Thu Nov 14, 3:10pm

Thu Nov 14, 3:00pm

Thu Nov 14, 2:10pm

Thu Nov 14, 2:00pm

Thu Nov 14, 1:10pm

Thu Nov 14, 1:00pm

Thu Nov 14, 12:10pm

Thu Nov 14, 12:01pm

Thu Nov 14, 11:10am

Thu Nov 14, 11:00am

Thu Nov 14, 10:10am

Thu Nov 14, 10:01am

Thu Nov 14, 9:10am

Thu Nov 14, 9:00am

Thu Nov 14, 8:10am

Thu Nov 14, 8:00am

Thu Nov 14, 7:10am

Thu Nov 14, 7:00am

Thu Nov 14, 6:10am

Thu Nov 14, 6:00am

Thu Nov 14, 5:10am

Thu Nov 14, 5:00am

Thu Nov 14, 4:10am

Thu Nov 14, 4:00am

Thu Nov 14, 3:10am

Thu Nov 14, 3:00am

Thu Nov 14, 2:10am

Thu Nov 14, 2:00am

Thu Nov 14, 1:10am

Thu Nov 14, 1:00am

Thu Nov 14, 12:10am

Thu Nov 14, 12:00am

Wed Nov 13, 11:10pm

Wed Nov 13, 11:00pm

Wed Nov 13, 10:10pm

Wed Nov 13, 10:00pm

Wed Nov 13, 9:10pm

Wed Nov 13, 9:00pm

Wed Nov 13, 8:10pm

Wed Nov 13, 8:00pm

Wed Nov 13, 7:10pm

Wed Nov 13, 7:00pm

Wed Nov 13, 6:10pm

Wed Nov 13, 6:01pm

Wed Nov 13, 5:10pm

Wed Nov 13, 5:00pm

Wed Nov 13, 4:10pm

Wed Nov 13, 4:00pm

Wed Nov 13, 3:10pm

Wed Nov 13, 3:01pm

Wed Nov 13, 2:10pm

Wed Nov 13, 2:01pm

Wed Nov 13, 1:10pm

Wed Nov 13, 1:00pm

Wed Nov 13, 12:10pm

Wed Nov 13, 12:01pm

Wed Nov 13, 11:10am

Wed Nov 13, 11:00am

Wed Nov 13, 10:10am

Wed Nov 13, 10:00am

Wed Nov 13, 9:10am

Wed Nov 13, 9:00am

Wed Nov 13, 8:10am

Wed Nov 13, 8:00am

Wed Nov 13, 7:10am

Wed Nov 13, 7:00am

Wed Nov 13, 6:10am

Wed Nov 13, 6:00am

Wed Nov 13, 5:10am

Wed Nov 13, 5:00am

Wed Nov 13, 4:10am

Wed Nov 13, 3:10am

Wed Nov 13, 3:00am

Wed Nov 13, 2:10am

Wed Nov 13, 2:00am

Wed Nov 13, 1:10am

Wed Nov 13, 1:00am

Wed Nov 13, 12:10am

Wed Nov 13, 12:00am

Tue Nov 12, 11:10pm

Tue Nov 12, 11:00pm

Tue Nov 12, 10:10pm

Tue Nov 12, 10:00pm

Tue Nov 12, 9:10pm

Tue Nov 12, 9:00pm

Tue Nov 12, 8:10pm

Tue Nov 12, 8:00pm

Tue Nov 12, 7:10pm

Tue Nov 12, 7:01pm

Tue Nov 12, 6:10pm

Tue Nov 12, 6:01pm

Tue Nov 12, 5:10pm

Tue Nov 12, 5:01pm

Tue Nov 12, 4:10pm

Tue Nov 12, 4:01pm

Tue Nov 12, 3:10pm

Tue Nov 12, 3:00pm

Tue Nov 12, 2:10pm

Tue Nov 12, 2:00pm

Tue Nov 12, 1:10pm

Tue Nov 12, 1:00pm

Tue Nov 12, 12:10pm

Tue Nov 12, 12:00pm

Tue Nov 12, 11:10am

Tue Nov 12, 11:00am

Tue Nov 12, 10:10am

Tue Nov 12, 10:01am

Tue Nov 12, 9:10am

Tue Nov 12, 9:00am

Tue Nov 12, 8:10am

Tue Nov 12, 8:00am

Tue Nov 12, 7:10am

Tue Nov 12, 7:00am

Tue Nov 12, 6:10am

Tue Nov 12, 6:00am

Tue Nov 12, 5:10am

Tue Nov 12, 5:01am

Tue Nov 12, 4:10am

Tue Nov 12, 4:00am

Tue Nov 12, 3:10am

Tue Nov 12, 3:01am

Tue Nov 12, 2:10am

Meta data:

ID: f033c226-99bf-483f-bf28-09671a996a75
Link: https://api.weather.gov/products/f033c226-99bf-483f-bf28-09671a996a75